Home   Weather   Durham   Past weeks
Flag for United Kingdom

Past Weather in Durham, England, United Kingdom — Yesterday and Last 2 Weeks

Now
48 °F

Light rain. Passing clouds.


Feels Like: 40 °F
Forecast: N/A
Wind: 28 mph from Southwest

Location: Newcastle

Current Time: Feb 21, 2020 at 7:39:07 pm

Latest Report: Feb 21, 2020 at 6:50 pm


Visibility: N/A

Pressure: 29.62 "Hg

Humidity: 87%

Dew Point: 45 °F

Location of DurhamLocation

Past Weather in Durham — Graph

°F

Durham Temperature Yesterday

Maximum temperature yesterday: 50 °F (at 5:20 am)
Minimum temperature yesterday: 37 °F (at 4:50 pm)
Average temperature yesterday: 43 °F

High & Low Weather Summary for the Past Weeks

 TemperatureHumidityPressure
High52 °F (Feb 9, 8:50 am)100% (Feb 6, 7:20 pm)30.36 "Hg (Feb 6, 7:20 pm)
Low30 °F (Feb 6, 8:20 pm)61% (Feb 16, 4:50 pm)28.53 "Hg (Feb 9, 2:20 pm)
Average41 °F86%29.45 "Hg
* Reported Feb 6 6:20 pm — Feb 21 6:20 pm, Durham. Weather by CustomWeather, © 2020

Note: Actual official high and low records may vary slightly from our data, if they occured in-between our weather recording intervals... More about our weather records

Durham Weather History for the Previous 24 Hours

Scroll right to see more
 ConditionsComfort  
Time TempWeatherWind HumidityBarometerVisibility
6:20 pm
Fri, Feb 21
48 °FPassing clouds.26 mph87%29.59 "HgN/A
5:50 pm48 °FPassing clouds.25 mph87%29.62 "HgN/A
5:20 pm48 °FPassing clouds.26 mph87%29.59 "HgN/A
4:50 pm48 °FPassing clouds.25 mph87%29.62 "HgN/A
4:20 pm50 °FPassing clouds.26 mph76%29.59 "HgN/A
3:20 pm50 °FPassing clouds.25 mph82%29.62 "HgN/A
2:50 pm48 °FSprinkles. Scattered clouds.26 mph87%29.62 "HgN/A
2:20 pm50 °FSprinkles. Scattered clouds.25 mph76%29.65 "HgN/A
1:50 pm50 °FPassing clouds.26 mph76%29.62 "HgN/A
1:20 pm50 °FPassing clouds.29 mph76%29.65 "HgN/A
12:50 pm50 °FPassing clouds.29 mph76%29.65 "HgN/A
11:50 am50 °FPassing clouds.29 mph76%29.68 "HgN/A
11:20 am50 °FPassing clouds.26 mph76%29.68 "HgN/A
10:50 am48 °FScattered clouds.21 mph76%29.68 "HgN/A
10:20 am48 °FScattered clouds.23 mph76%29.68 "HgN/A
9:50 am46 °FScattered clouds.18 mph82%29.68 "HgN/A
9:20 am46 °FScattered clouds.18 mph76%29.71 "HgN/A
8:50 am45 °FScattered clouds.17 mph81%29.71 "HgN/A
8:20 am45 °FScattered clouds.20 mph76%29.71 "HgN/A
7:50 am43 °FScattered clouds.15 mph81%29.71 "HgN/A
7:20 am43 °FScattered clouds.14 mph81%29.74 "HgN/A
6:50 am43 °FPassing clouds.14 mph76%29.74 "HgN/A
6:20 am43 °FPassing clouds.17 mph81%29.77 "HgN/A
5:50 am43 °FPassing clouds.16 mph81%29.77 "HgN/A
5:20 am43 °FPassing clouds.13 mph81%29.80 "HgN/A
4:50 am43 °FPassing clouds.18 mph76%29.80 "HgN/A
4:20 am43 °FPassing clouds.14 mph76%29.80 "HgN/A
3:50 am43 °FPassing clouds.14 mph71%29.83 "HgN/A
3:20 am41 °FPassing clouds.14 mph81%29.83 "HgN/A
2:50 am41 °FPassing clouds.13 mph81%29.83 "HgN/A
2:20 am41 °FPassing clouds.17 mph81%29.83 "HgN/A
1:50 am41 °FPassing clouds.16 mph81%29.83 "HgN/A
1:20 am41 °FPassing clouds.21 mph81%29.83 "HgN/A
12:50 am41 °FPassing clouds.22 mph81%29.83 "HgN/A
12:20 am41 °FPassing clouds.23 mph81%29.83 "HgN/A
11:50 pm
Thu, Feb 20
39 °FPassing clouds.21 mph87%29.83 "HgN/A
10:50 pm39 °FPassing clouds.24 mph81%29.80 "HgN/A
10:20 pm39 °FPassing clouds.25 mph87%29.77 "HgN/A
9:50 pm39 °FPassing clouds.21 mph81%29.77 "HgN/A
9:20 pm39 °FScattered showers. Passing clouds.22 mph81%29.74 "HgN/A
8:50 pm37 °FPassing clouds.20 mph87%29.74 "HgN/A
8:20 pm37 °FPassing clouds.25 mph87%29.74 "HgN/A
7:50 pm39 °FPassing clouds.20 mph81%29.71 "HgN/A
7:20 pm37 °FPassing clouds.24 mph87%29.71 "HgN/A
Weather by CustomWeather, © 2020

See weather overview

Advertising